Regional Weather Roundup
Issued by NWS Grand Forks, ND

Home | Current Version | Previous Version | Text Only | Print | Product List | Glossary On
Versions: 1 2 3 4 5 6 7 8 9 10 11 12 13 14 15 16 17 18 19 20 21 22 23 24 25 26 27 28 29 30 31 32 33 34 35 36 37 38 39 40 41 42 43 44 45 46 47 48 49 50
000
ASUS43 KFGF 230231
RWRFGF
PRAIRIE TO PINES  WEATHER ROUNDUP
NATIONAL WEATHER SERVICE EASTERN NORTH DAKOTA/GRAND FORKS ND
900 PM CDT FRI SEP 22 2017

 **SATELLITE DATA USED TO AUGMENT SKY COVER AT AUTOMATED STATIONS**
 *****  WEATHER ACROSS EASTERN NORTH DAKOTA  *****

CITY           SKY/WX    TMP DP  RH WIND       PRES   REMARKS
GRAND FORKS    MOCLDY    60  56  86 NW23G33   29.70R
GRAND FRKS AFB CLOUDY    54  52  94 N20G30    29.72R
DEVILS LAKE    CLOUDY    51  48  89 N17       29.84S
FARGO          FAIR      73  68  84 NW12      29.64R
WAHPETON ARPT  FAIR      75  59  57 SW8       29.69R
$$

 ***** WEATHER ACROSS CENTRAL AND WESTERN NORTH DAKOTA  *****

CITY           SKY/WX    TMP DP  RH WIND       PRES   REMARKS
BISMARCK       CLOUDY    50  46  86 N16       29.93F
MINOT          CLOUDY    49  45  86 NW14      29.99R
JAMESTOWN      CLOUDY    54  50  86 N17G26    29.79R
MINOT AFB      CLOUDY    48  45  89 NW15      29.98R
GARRISON         N/A     47  43  86 N15G23    29.96R
WILLISTON      CLOUDY    46  41  82 N13       30.03F
DICKINSON      NOT AVBL
HETTINGER      CLOUDY    46  38  73 N14       29.98F
$$

 *****  OTHER AIRPORT OBSERVATIONS IN OUR AREA  *****

CITY           SKY/WX    TMP DP  RH WIND       PRES   REMARKS
WALHALLA       FAIR     N/A N/A N/A N21       29.85R
GRAFTON AIRPOR MOCLDY    52  52 100 N25G38    29.77S
VALLEY CITY AR FAIR      55  55 100 NW17      29.76R
CANDO          CLOUDY    50  50 100 N17G24    29.90R
CAVALIER APRT  LGT RAIN  52  50  93 N21G30    29.82R
GWINNER        CLEAR     61  55  82 NW14      29.74R
SHEYENNE NWR     N/A     69  61  76 NW8       29.95S
ROLLA          CLOUDY    46  46 100 N22       29.91R
 ***** THE ABOVE OBSERVATIONS ARE NON NWS ARE NOT QUALITY
       CONTROLLED AND MAY MIS-REPORT RAIN FOR SNOW...
$$

  *****  WEATHER ACROSS NORTHERN MINNESOTA  *****

CITY           SKY/WX    TMP DP  RH WIND       PRES   REMARKS
FLAG ISLAND    CLOUDY    64  63  94 CALM      29.70F
WARROAD        CLOUDY    66  63  88 NE10G17   29.69S THUNDER
ROSEAU         TSTM      66  61  82 NE13      29.70R
HALLOCK          N/A     55  54  94 N29G37    29.72R
THF RVR FALLS  FAIR      70  68  94 N5        29.64F
BAUDETTE       MOCLDY    69  68  96 E6        29.66F
WASKISH        FAIR      72  70  94 E8        29.65F
CROOKSTON      FAIR      61  57  88 N17       29.65R
STEPHEN NDAWN    N/A     57  54  88 NW20        N/A
GREENBUSH NDAW   N/A     64  59  82 NE6         N/A
$$
  *****  WEATHER ACROSS CENTRAL AND WEST MINNESOTA  *****

CITY           SKY/WX    TMP DP  RH WIND       PRES   REMARKS
FOSSTON        FAIR      75  70  83 S10       29.63F
BEMIDJI        FAIR      73  71  93 SE8       29.67F
PARK RAPIDS    FAIR      79  73  82 S10       29.70F
ELBOW LAKE     FAIR      80  71  74 S15       29.72R HAZE
WADENA         FAIR      77  70  78 S8        29.71S
DETROIT LAKES  FAIR      79  70  73 S10       29.68S
MOORHEAD       FAIR      77  66  69 W15       29.66R
FERGUS FALLS   FAIR      79  70  73 SW13      29.68R
MORRIS MN      FAIR      82  68  61 SW14G22   29.73R
STAPLES        FAIR      79  70  73 S9        29.72S
$$
  *****  WEATHER ELSEWHERE ACROSS MINNESOTA  *****

CITY           SKY/WX    TMP DP  RH WIND       PRES   REMARKS
DULUTH         FAIR      66  65  96 SE10      29.82R
INTRNTL FALLS  MOCLDY    71  67  87 SE9       29.73F
ELY            FAIR      70  66  88 SE6       29.81S
CLOQUET        FAIR      68  63  83 E5        29.81S
WHEATON        FAIR      77  61  57 S6        29.75R
BRAINERD       FAIR      80  70  71 S12       29.74S
HIBBING        FAIR      71  70  96 SE6       29.77S
ALEXANDRIA     NOT AVBL
SAINT CLOUD    FAIR      82  71  69 S13       29.77R
MINNEAPOLIS    FAIR      86  69  56 S12       29.82R HX  90
$$

  *****  WEATHER ACROSS SOUTH DAKOTA  *****

CITY           SKY/WX    TMP DP  RH WIND       PRES   REMARKS
SIOUX FALLS    MOCLDY    83  68  60 SW7       29.78R
BROOKINGS      FAIR      72  64  78 N5        29.80R
WATERTOWN      HVY RAIN  67  65  93 VRB5      29.78S FOG
HURON          FAIR      63  57  81 NW16      29.79S
SISSETON         N/A     76  62  62 W16G22    29.71R
ABERDEEN       CLOUDY    62  58  86 NW13      29.79R
MITCHELL       FAIR      66  62  87 NW7       29.79R
PIERRE         MOCLDY    52  45  77 N12       29.85R
MOBRIDGE       CLOUDY    52  46  80 N22G28    29.86S
RAPID CITY     MOCLDY    52  36  54 N23G29    29.93S
$$

  *****  SOME WEATHER IN NEARBY STATES *****

CITY           SKY/WX    TMP DP  RH WIND       PRES   REMARKS
GLASGOW MT     CLOUDY    46  40  79 CALM      30.06S
GREAT FALLS MT CLOUDY    37  34  89 N5        30.08S
CHEYENNE WY    FAIR      53  35  50 N9        29.94R
SCOTTSBLUFF NE FAIR      61  43  51 NE8       29.86R
OMAHA NE       FAIR      85  67  54 S17G25    29.86R
DES MOINES IA  FAIR      80  67  64 SE9       29.92R
DAVENPORT IA   FAIR      75  66  73 SE7       30.02R
CHICAGO IL     FAIR      82  66  58 SE9       30.02S
EAU CLAIRE WI  FAIR      82  67  60 S10       29.89R
LA CROSSE WI   FAIR      84  68  58 S12       29.92R
$$

  *****  SOME NATIONAL WEATHER *****

CITY           SKY/WX    TMP DP  RH WIND       PRES   REMARKS
LA GUARDIA NY  FAIR      74  56  53 N9        29.96S
RALEIGH NC     MOCLDY    70  65  84 CALM      30.03S
ATLANTA GA     FAIR      76  69  79 SW5       30.03R
NEW ORLEANS LA NOT AVBL
OKLAHOMA CITY  FAIR      79  66  64 SE10      29.91R
ALBUQUERQUE NM MOCLDY    80  34  19 SW13      29.86S
SALT LAKE CITY FAIR      49  41  74 N7        29.96R
LOS ANGELES CA FAIR      66  52  60 W18       29.80F
BOISE ID       FAIR      49  40  71 CALM      29.97S
SEATTLE WA     MOCLDY    63  47  55 S5        30.03S
$$

*** WEATHER ACROSS MANITOBA...SASKATCHEWAN AND ONTARIO ***
                ***ONTARIO***

CITY           SKY/WX    TMP DP  RH WIND       PRES   REMARKS
GERALDTON      FOG       64  64 100 SE5       29.95R VSB 1
THUNDER BAY    PTCLDY    61  61 100 E6        29.88S
SIOUX LOOKOUT  TSTM      68  64  88 E6        29.80F
TORONTO        PTCLDY    72  50  46 S2        30.09S
BIG TROUT LK   MOCLDY    54  43  66 N7        29.93F
PICKLE LAKE    MOCLDY    61  50  67 E10       29.89F
DRYDEN         CLOUDY    66  66 100 E8        29.77F
KENORA         TSTM      61  59  94 N5        29.78S
$$
                *** MANITOBA***

CITY           SKY/WX    TMP DP  RH WIND       PRES   REMARKS
BRANDON        CLOUDY    48  46  93 N8        29.96F
DAUPHIN        LGT RAIN  46  46 100 N5        30.02F
ISLAND LAKE    MOCLDY    50  43  76 N6        29.99R
PILOT MOUND      N/A     48  46  93 N20G26      N/A
THE PAS        CLOUDY    46  43  87 NE5       30.05S
THOMPSON       DRIZZLE   43  41  93 N9G18     30.09R
WINNIPEG       TSTM      52  50  93 N17G28    29.87R
LYNN LAKE      CLOUDY    39  39 100 NE9       30.13F FOG
CHURCHILL      CLOUDY    41  34  75 N17       30.17R
GILLAM         CLOUDY    45  41  87 NE14G22   30.07S
$$
                ***SASKATCHEWAN***

CITY           SKY/WX    TMP DP  RH WIND       PRES   REMARKS
ESTEVAN        CLOUDY    45  45 100 NW7       30.05R
KINDERSLEY     CLOUDY    43  39  87 NW3       30.08S
LLOYDMINSTER   CLOUDY    43  37  81 E2        30.09R
PRINCE ALBERT  MOCLDY    45  39  81 N2        30.10R
REGINA         CLOUDY    45  41  87 NW6       30.07S
YORKTON        LGT RAIN  45  43  93 NW5       30.05S
N. BATTLEFORD  CLOUDY    43  39  87 N5        30.10S
LA RONGE       CLOUDY    45  41  87 N7        30.09S
SASKATOON      CLOUDY    45  39  81 N5        30.09S
SWIFT CURRENT  CLOUDY    43  34  70 NE5       30.06R
$$
NOTE: THESE ARE AUTOMATED STATIONS WITH LIMITED QUALITY CONTROL
      "FAIR" INDICATES FEW OR NO CLOUDS BELOW 12,000 FEET WITH NO
      SIGNIFICANT WEATHER AND/OR OBSTRUCTIONS TO VISIBILITY.
      SKY/WX - SKY CONDITION AND SIGNIFICANT WEATHER.
      TMP - AIR TEMPERATURE.    DP   - DEWPOINT TEMPERATURE.
      RH  - RELATIVE HUMIDITY.  PRES - PRESSURE.
      HX  - HEAT INDEX.         WCI  - WIND CHILL INDEX.
$




USA.gov is the U.S. government's official web portal to all federal, state and local government web resources and services.